Hourly Weather Ruinas Uxmal

Today, 21 April, Wednesday

Time Temperature Precipitation Wind Pressure Humidity
00:00 +26°C° 0 mm 2 mps 759 mmHg 89%
01:00 +26°C° 0 mm 1 mps 759 mmHg 91%
02:00 +26°C° 0 mm 1 mps 759 mmHg 94%
03:00 +25°C° 0 mm 1 mps 758 mmHg 96%
04:00 +26°C° 0.1 mm 1 mps 759 mmHg 95%
05:00 +26°C° 0.1 mm 1 mps 759 mmHg 95%
06:00 +26°C° 0 mm 1 mps 759 mmHg 94%
07:00 +28°C° 0.3 mm 2 mps 760 mmHg 84%
08:00 +30°C° 0.3 mm 2 mps 760 mmHg 74%
09:00 +32°C° 0.3 mm 2 mps 760 mmHg 64%
10:00 +32°C° 0.9 mm 2 mps 760 mmHg 65%
11:00 +32°C° 0.9 mm 2 mps 760 mmHg 67%
12:00 +31°C° 0.9 mm 2 mps 760 mmHg 68%
13:00 +32°C° 0.5 mm 2 mps 760 mmHg 67%
14:00 +32°C° 0.5 mm 2 mps 759 mmHg 66%
15:00 +32°C° 0.5 mm 2 mps 759 mmHg 64%
16:00 +30°C° 0.6 mm 2 mps 759 mmHg 73%
17:00 +28°C° 0.6 mm 2 mps 759 mmHg 81%
18:00 +27°C° 0.6 mm 2 mps 759 mmHg 89%
19:00 +26°C° 0.1 mm 2 mps 760 mmHg 90%
20:00 +26°C° 0.1 mm 1 mps 760 mmHg 92%
21:00 +25°C° 0.1 mm 1 mps 761 mmHg 94%
22:00 +25°C° 0 mm 1 mps 760 mmHg 94%
23:00 +25°C° 0 mm 1 mps 760 mmHg 94%

Tomorrow, 22 April, Thursday

Time Temperature Precipitation Wind Pressure Humidity
00:00 +25°C° 0 mm 1 mps 760 mmHg 94%
01:00 +25°C° 0.1 mm 1 mps 760 mmHg 95%
02:00 +25°C° 0.1 mm 1 mps 760 mmHg 95%
03:00 +25°C° 0.1 mm 1 mps 759 mmHg 96%
04:00 +25°C° 0.1 mm 1 mps 760 mmHg 95%
05:00 +25°C° 0.1 mm 1 mps 760 mmHg 95%
06:00 +25°C° 0.1 mm 1 mps 760 mmHg 95%
07:00 +27°C° 0.3 mm 1 mps 761 mmHg 86%
08:00 +28°C° 0.3 mm 2 mps 761 mmHg 78%
09:00 +30°C° 0.3 mm 2 mps 761 mmHg 70%
10:00 +31°C° 0.1 mm 3 mps 761 mmHg 61%
11:00 +34°C° 0.1 mm 3 mps 761 mmHg 52%
12:00 +35°C° 0.1 mm 3 mps 760 mmHg 43%
13:00 +35°C° 0 mm 3 mps 760 mmHg 44%
14:00 +34°C° 0 mm 3 mps 759 mmHg 45%
15:00 +34°C° 0 mm 3 mps 759 mmHg 46%
16:00 +31°C° 0 mm 3 mps 759 mmHg 54%
17:00 +30°C° 0 mm 3 mps 760 mmHg 61%
18:00 +28°C° 0 mm 2 mps 760 mmHg 69%
19:00 +27°C° 0 mm 2 mps 760 mmHg 74%
20:00 +26°C° 0 mm 2 mps 761 mmHg 80%
21:00 +25°C° 0 mm 2 mps 761 mmHg 85%
22:00 +24°C° 0 mm 2 mps 761 mmHg 87%
23:00 +24°C° 0 mm 2 mps 761 mmHg 88%

Day after tomorrow, 23 April, Friday

Time Temperature Precipitation Wind Pressure Humidity
00:00 +24°C° 0 mm 2 mps 760 mmHg 90%
01:00 +24°C° 0 mm 2 mps 760 mmHg 90%
02:00 +24°C° 0 mm 2 mps 760 mmHg 91%
03:00 +24°C° 0 mm 2 mps 759 mmHg 91%
04:00 +24°C° 0 mm 2 mps 759 mmHg 90%
05:00 +24°C° 0 mm 2 mps 760 mmHg 89%
06:00 +25°C° 0 mm 2 mps 760 mmHg 87%
07:00 +27°C° 0 mm 2 mps 760 mmHg 77%
08:00 +29°C° 0 mm 3 mps 760 mmHg 66%
09:00 +31°C° 0 mm 3 mps 761 mmHg 56%
10:00 +31°C° 0 mm 3 mps 760 mmHg 53%
11:00 +33°C° 0 mm 3 mps 760 mmHg 50%
12:00 +34°C° 0 mm 4 mps 760 mmHg 47%
13:00 +33°C° 0 mm 4 mps 759 mmHg 48%
14:00 +33°C° 0 mm 4 mps 759 mmHg 49%
15:00 +32°C° 0 mm 4 mps 758 mmHg 50%
16:00 +30°C° 0 mm 3 mps 758 mmHg 56%
17:00 +29°C° 0 mm 3 mps 758 mmHg 62%
18:00 +28°C° 0 mm 3 mps 759 mmHg 67%
19:00 +27°C° 0 mm 3 mps 759 mmHg 72%
20:00 +26°C° 0 mm 3 mps 759 mmHg 76%
21:00 +25°C° 0 mm 3 mps 759 mmHg 81%
22:00 +25°C° 0 mm 3 mps 759 mmHg 82%
23:00 +25°C° 0 mm 3 mps 758 mmHg 84%

24 April, Saturday

Time Temperature Precipitation Wind Pressure Humidity
00:00 +25°C° 0 mm 3 mps 758 mmHg 86%
01:00 +25°C° 0 mm 3 mps 757 mmHg 85%
02:00 +26°C° 0 mm 3 mps 757 mmHg 84%
03:00 +26°C° 0 mm 4 mps 756 mmHg 84%
04:00 +26°C° 0 mm 4 mps 757 mmHg 82%
05:00 +27°C° 0 mm 4 mps 757 mmHg 81%
06:00 +27°C° 0 mm 4 mps 757 mmHg 80%
07:00 +29°C° 0 mm 4 mps 758 mmHg 72%
08:00 +30°C° 0 mm 4 mps 758 mmHg 64%
09:00 +33°C° 0 mm 5 mps 758 mmHg 56%
10:00 +33°C° 0 mm 5 mps 758 mmHg 53%
11:00 +34°C° 0 mm 5 mps 758 mmHg 50%
12:00 +35°C° 0 mm 5 mps 758 mmHg 47%
13:00 +35°C° 0 mm 5 mps 757 mmHg 48%
14:00 +34°C° 0 mm 4 mps 757 mmHg 50%
15:00 +34°C° 0 mm 4 mps 757 mmHg 52%
16:00 +32°C° 0 mm 4 mps 757 mmHg 60%
17:00 +30°C° 0 mm 4 mps 757 mmHg 68%
18:00 +29°C° 0 mm 3 mps 757 mmHg 76%
19:00 +28°C° 0 mm 3 mps 758 mmHg 82%
20:00 +27°C° 0 mm 3 mps 758 mmHg 87%
21:00 +26°C° 0 mm 2 mps 758 mmHg 92%
22:00 +26°C° 0 mm 2 mps 758 mmHg 92%
23:00 +26°C° 0 mm 2 mps 758 mmHg 91%

25 April, Sunday

Time Temperature Precipitation Wind Pressure Humidity
00:00 +26°C° 0 mm 3 mps 758 mmHg 91%
01:00 +26°C° 0 mm 3 mps 757 mmHg 91%
02:00 +26°C° 0 mm 3 mps 757 mmHg 91%
03:00 +26°C° 0 mm 3 mps 757 mmHg 91%
04:00 +26°C° 0 mm 3 mps 757 mmHg 89%
05:00 +26°C° 0 mm 3 mps 757 mmHg 87%
06:00 +26°C° 0 mm 2 mps 758 mmHg 85%
07:00 +28°C° 0 mm 3 mps 758 mmHg 75%
08:00 +30°C° 0 mm 3 mps 759 mmHg 65%
09:00 +33°C° 0 mm 3 mps 759 mmHg 55%
10:00 +34°C° 0 mm 3 mps 759 mmHg 51%
11:00 +35°C° 0 mm 3 mps 759 mmHg 47%
12:00 +36°C° 0 mm 3 mps 759 mmHg 44%
13:00 +35°C° 0 mm 3 mps 758 mmHg 44%
14:00 +35°C° 0 mm 3 mps 758 mmHg 45%
15:00 +35°C° 0 mm 3 mps 757 mmHg 45%
16:00 +33°C° 0 mm 3 mps 758 mmHg 52%
17:00 +31°C° 0 mm 3 mps 758 mmHg 60%
18:00 +29°C° 0 mm 3 mps 758 mmHg 67%
19:00 +28°C° 0 mm 3 mps 758 mmHg 72%
20:00 +27°C° 0 mm 3 mps 759 mmHg 76%
21:00 +26°C° 0 mm 3 mps 759 mmHg 81%
22:00 +26°C° 0 mm 2 mps 759 mmHg 83%
23:00 +26°C° 0 mm 2 mps 758 mmHg 86%

26 April, Monday

Time Temperature Precipitation Wind Pressure Humidity
00:00 +25°C° 0 mm 2 mps 758 mmHg 88%
01:00 +25°C° 0 mm 2 mps 758 mmHg 89%
02:00 +25°C° 0 mm 2 mps 758 mmHg 89%
03:00 +25°C° 0 mm 2 mps 758 mmHg 90%
04:00 +25°C° 0 mm 2 mps 758 mmHg 89%
05:00 +26°C° 0 mm 2 mps 759 mmHg 88%
06:00 +26°C° 0 mm 2 mps 759 mmHg 87%
07:00 +28°C° 0 mm 3 mps 759 mmHg 76%
08:00 +30°C° 0 mm 3 mps 760 mmHg 65%
09:00 +33°C° 0 mm 4 mps 760 mmHg 55%
10:00 +34°C° 0 mm 4 mps 760 mmHg 52%
11:00 +34°C° 0 mm 4 mps 760 mmHg 49%
12:00 +35°C° 0 mm 4 mps 759 mmHg 46%
13:00 +35°C° 0 mm 4 mps 759 mmHg 46%
14:00 +34°C° 0 mm 4 mps 758 mmHg 47%
15:00 +34°C° 0 mm 4 mps 758 mmHg 47%
16:00 +33°C° 0 mm 4 mps 758 mmHg 54%
17:00 +30°C° 0 mm 3 mps 759 mmHg 62%
18:00 +29°C° 0 mm 3 mps 759 mmHg 69%
19:00 +28°C° 0 mm 3 mps 759 mmHg 74%
20:00 +27°C° 0 mm 2 mps 759 mmHg 79%
21:00 +26°C° 0 mm 2 mps 759 mmHg 85%
22:00 +26°C° 0 mm 2 mps 759 mmHg 86%
23:00 +25°C° 0 mm 2 mps 759 mmHg 88%
Show more